Погода в Берестье

Беларусь     51°49′51″N   23°43′26″E
темп.,
°C
ветер,
м/с
пор.,
м/с
влажн.,
%
обл.,
%
осадки,
мм/ч
давл.,
гПа
погр.,
м
6 мая, чт
чт600:00+8зюз5995100 1.4 1003399
03:00+7з61093100 3.3 10031024
06:00+6з7128994 0.8 1005728
09:00+6з8128059 0.9 10081222
12:00+10з812515 0.1 10091631
15:00+12з912395 0.1 10102377
18:00+13зюз594445 0.0 10082745
21:00+8юз366787 0.1 1009139
7 мая, пт
пт700:00+7ююз5128035 0.3 1009362
03:00+7ююз41186100 0.4 1008279
06:00+6ю1187100 0.0 100720
09:00+7юв4890100 0.6 1006336
12:00+8ю61193100 0.4 1004819
15:00+10юз41084100 0.6 1003819
18:00+12зюз7117775 0.9 10031131
21:00+8з511896 1.4 1005582
8 мая, сб
сб800:00+5з81290100 0.1 1007964
03:00+4зсз61297100 1.3 1010868
06:00+4з6129033 0.1 1012898
09:00+5зсз7118455 0.4 10151126
12:00+8зсз786599 0.2 10171582
15:00+8з676267 0.3 10181407
18:00+9з586134 0.3 10181473
21:00+6зюз47825 0.6 1019145
9 мая, вс
вс900:00+4з37913 0.0 1021136
03:00+3з35934 0.0 102287
06:00+2зюз3392100 0.0 102350
09:00+8ююз236951 0.0 1024346
12:00+13ю4549100 0.0 10231520
15:00+16ююз56445 0.0 10221932
18:00+16ю56505 0.0 10211626
21:00+11юв48725 0.0 1021134
10 мая, пн
пн1000:00+9ююв4108136 0.0 1022192
03:00+8ююв5138177 0.0 1022283
06:00+7юв5137425 0.0 1022272
09:00+12ююв7146448 0.0 1022495
12:00+17ююв9125362 0.0 1021926
15:00+20ююв911505 0.0 10201224
18:00+19юв812595 0.0 10201182
21:00+15юв715670 0.0 1020596